Tracking 27420 objects as of 10-Jun-2023
HD Live streaming from Space Station
objects crossing your sky now

ONEWEB-0637

Track ONEWEB-0637 now!
10-day predictions
ONEWEB-0637 is classified as:


NORAD ID: 56078
Int'l Code: 2023-043AJ
Perigee: 906.5 km
Apogee: 923.6 km
Inclination: 87.8 °
Period: 103.2 minutes
Semi major axis: 7286 km
RCS: Unknown
Launch date: March 26, 2023
Source: United Kingdom (UK)
Launch site: SRIHARIKOTA (SRI)
Your satellite tracking list
Your tracking list is empty




NASA's NSSDC Master Catalog

Two Line Element Set (TLE):
1 56078U 23043AJ  23161.19392641 -.00077690  00000-0 -57413-1 0  9998
2 56078  87.7648 119.4450 0011728  25.6428 334.5327 13.95926308 12150
Source of the keplerian elements: AFSPC